Weather History for Scottsbluff, NE

Change the Weather History Date:

Sunday, December 31, 2000

  Actual Average Record
Temperature  
Mean Temperature 18 °F 26 °F  
Max Temperature 28 °F 40 °F 67 °F (1904)
Min Temperature 9 °F 12 °F -30 °F (1923)
Degree Days  
Heating Degree Days 46 39  
Month to date heating degree days 1208  
Since 1 July heating degree days 2772  
Cooling Degree Days 0 0  
Month to date cooling degree days 0  
Year to date cooling degree days 724  
Moisture  
Dew Point 17 °F    
Average Humidity 88    
Maximum Humidity 96    
Minimum Humidity 78    
Precipitation  
Precipitation 0.04 in 0.02 in 0.90 in (1975)
Month to date precipitation 0.51  
Year to date precipitation 15.79  
Snow  
Snow 0.00 in 0.20 in 10.90 in (1975)
Month to date snowfall 7.1  
Since 1 July snowfall 16.0  
Snow Depth -    
Sea Level Pressure  
Sea Level Pressure 30.27 in    
Wind  
Wind Speed 3 mph (NNW)    
Max Wind Speed 9 mph    
Max Gust Speed -    
Visibility 7 miles    
Events Snow    
T = Trace of Precipitation, MM = Missing Value Source: NWS Daily Summary

Daily Weather History Graph

Daily Weather History Graph

Search for Another Location

Airport:

Trip Planner

Search our weather history database for the weather conditions in past years. The results will help you decide how hot, cold, wet, or windy it might be!

Date:

Astronomy

Dec. 31, 2000 Rise Set
Actual Time 7:22 AM MST 4:33 PM MST
Civil Twilight 6:50 AM MST 5:05 PM MST
Nautical Twilight 6:15 AM MST 5:40 PM MST
Astronomical Twilight 5:41 AM MST 6:13 PM MST
Moon 11:03 AM MST (12/31) 10:17 PM MST (12/31)
Length of Visible Light 10h 14m
Length of Day
9h 11m
Waxing Crescent, 30% of the Moon is Illuminated
Dec 31
Waxing Crescent
Jan 2
First Quarter
Jan 9
Full
Jan 16
Last Quarter
Jan 24
New

Hourly Weather History & Observations

Time (MST) Temp. Windchill Dew Point Humidity Pressure Visibility Wind Dir Wind Speed Gust Speed Precip Events Conditions
12:06 AM 21.2 °F - 17.6 °F 86% 30.19 in 3.0 mi Calm Calm - 0.00 in Snow Light Snow
12:31 AM 19.4 °F 12.8 °F 17.6 °F 93% 30.17 in 5.0 mi ESE 4.6 mph - 0.00 in   Overcast
12:42 AM 19.4 °F - 17.6 °F 93% 30.18 in 4.0 mi Calm Calm - 0.00 in Snow Light Snow
12:54 AM 19.9 °F - 18.0 °F 92% 30.31 in 4.0 mi Calm Calm - 0.00 in Snow Light Snow
1:54 AM 19.9 °F 13.4 °F 18.0 °F 92% 30.31 in 7.0 mi ESE 4.6 mph - 0.00 in   Overcast
2:54 AM 19.9 °F 14.9 °F 18.0 °F 92% 30.31 in 7.0 mi ESE 3.5 mph - N/A   Overcast
3:54 AM 19.9 °F - 18.0 °F 92% 30.32 in 9.0 mi Calm Calm - N/A   Overcast
4:54 AM 19.9 °F - 18.0 °F 92% 30.31 in 9.0 mi Calm Calm - N/A   Overcast
5:54 AM 19.9 °F - 18.0 °F 92% 30.32 in 9.0 mi Calm Calm - N/A   Overcast
6:54 AM 19.9 °F 14.9 °F 17.1 °F 89% 30.33 in 8.0 mi WSW 3.5 mph - N/A   Overcast
7:54 AM 19.9 °F 11.1 °F 18.0 °F 92% 30.34 in 6.0 mi NW 6.9 mph - N/A   Overcast
8:54 AM 21.0 °F 12.4 °F 18.0 °F 88% 30.35 in 6.0 mi West 6.9 mph - N/A   Overcast
9:54 AM 21.9 °F 13.4 °F 18.0 °F 85% 30.33 in 7.0 mi NW 6.9 mph - N/A   Overcast
10:54 AM 23.0 °F 15.8 °F 19.0 °F 85% 30.31 in 7.0 mi West 5.8 mph - N/A   Overcast
11:54 AM 24.1 °F 17.0 °F 19.9 °F 84% 30.27 in 7.0 mi WNW 5.8 mph - N/A   Overcast
12:15 PM 24.8 °F - 19.4 °F 80% 30.13 in 7.0 mi Calm Calm - 0.01 in   Scattered Clouds
12:54 PM 27.0 °F 19.5 °F 21.9 °F 81% 30.24 in 8.0 mi Variable 6.9 mph - 0.04 in   Mostly Cloudy
1:08 PM 26.6 °F 20.0 °F 21.2 °F 80% 30.11 in 8.0 mi North 5.8 mph - N/A   Scattered Clouds
1:54 PM 28.0 °F 20.8 °F 23.0 °F 81% 30.23 in 8.0 mi NW 6.9 mph - N/A   Mostly Cloudy
2:26 PM 26.6 °F 21.2 °F 21.2 °F 80% 30.10 in 8.0 mi North 4.6 mph - N/A   Mostly Cloudy
2:54 PM 28.0 °F 21.7 °F 21.9 °F 78% 30.22 in 9.0 mi NW 5.8 mph - N/A   Scattered Clouds
3:54 PM 27.0 °F 21.6 °F 21.9 °F 81% 30.23 in 8.0 mi WNW 4.6 mph - N/A   Partly Cloudy
4:54 PM 19.9 °F 14.9 °F 18.0 °F 92% 30.26 in 6.0 mi WSW 3.5 mph - N/A   Scattered Clouds
5:54 PM 18.0 °F 9.8 °F 17.1 °F 96% 30.27 in 6.0 mi North 5.8 mph - N/A   Clear
6:54 PM 17.1 °F 6.6 °F 15.1 °F 92% 30.28 in 6.0 mi NNE 8.1 mph - N/A   Clear
7:54 PM 17.1 °F 5.8 °F 14.0 °F 88% 30.29 in 10.0 mi NE 9.2 mph - N/A   Clear
8:54 PM 16.0 °F 4.4 °F 12.0 °F 84% 30.30 in 10.0 mi NE 9.2 mph - N/A   Clear
9:54 PM 12.9 °F - 10.9 °F 92% 30.32 in 10.0 mi Calm Calm - N/A   Clear
10:54 PM 9.0 °F 0.6 °F 7.0 °F 92% 30.32 in 10.0 mi ENE 4.6 mph - N/A   Clear
11:54 PM 9.0 °F - 7.0 °F 92% 30.32 in 10.0 mi Calm Calm - N/A   Clear